Wetbulb
74.38 74.25 73.39 70.44 62.76 61.87 56.93 59.40 65.14 63.14 63.83 67.70 68.24 66.57 64.65 66.49 63.73 60.60 72.31 73.75 74.29 73.90 75.02 75.81 76.96 76.82 76.76 76.96 76.92 76.72 76.27 77.00 77.08 77.00 76.60 76.36 76.63 76.54 75.65 76.38 76.06 75.54 75.27 76.12 75.88 76.23 76.21 76.48 77.26
74.61 73.39 72.41 68.21 59.55 51.83 56.20 61.92 61.97 63.93 66.93 68.20 68.44 67.36 66.34 64.63 69.07 69.45 70.75 74.11 74.19 74.37 74.97 75.14 76.95 77.52 77.45 77.72 77.15 77.11 76.88 76.71 76.62 76.68 76.94 76.55 76.65 75.76 76.50 76.37 75.90 76.59 76.04 75.60 76.18 76.23 76.07 76.74 76.77
74.59 73.99 68.24 64.52 61.18 54.98 57.01 62.88 64.80 66.60 68.26 67.78 67.18 69.24 67.16 65.53 69.21 70.69 73.26 73.86 74.10 74.17 74.85 75.54 77.87 78.23 77.44 77.72 77.65 77.49 77.43 77.05 77.08 76.92 76.40 76.35 76.64 76.39 76.51 76.23 75.96 76.18 76.35 75.74 76.09 76.18 75.85 75.95 76.16
72.22 71.33 69.44 62.20 58.02 59.81 61.46 63.52 66.23 66.23 67.36 68.61 67.69 65.08 68.78 71.45 70.38 72.42 73.95 73.91 73.07 74.32 75.16 76.98 78.35 78.20 77.81 78.06 77.89 77.41 77.17 77.06 76.94 76.78 76.75 76.79 76.32 76.32 76.38 76.24 76.16 76.29 76.26 76.01 75.80 75.99 75.88 76.10 75.60
71.87 68.60 62.61 61.03 57.22 60.81 64.59 66.49 66.95 65.71 65.92 66.71 67.82 64.77 65.71 70.39 73.08 73.58 73.34 73.53 71.93 73.99 74.84 76.14 78.21 78.16 77.90 77.76 77.60 77.39 77.32 77.17 76.87 76.99 76.94 76.99 76.87 76.60 76.21 76.10 76.32 76.43 76.13 75.88 75.71 75.43 75.60 75.55 75.26
66.24 68.00 60.92 56.35 57.14 62.39 65.96 67.78 67.55 66.26 66.97 66.86 66.15 65.63 66.01 71.64 71.76 72.71 73.40 72.47 73.51 73.08 74.20 75.51 77.53 77.98 77.65 77.51 77.45 77.30 77.25 77.12 76.96 77.44 77.05 77.49 76.84 76.57 76.57 76.27 76.07 76.21 76.15 75.85 75.37 76.32 76.42 75.71 75.43
65.14 64.04 60.67 59.28 59.09 61.58 65.57 68.95 66.86 66.28 66.60 66.47 68.60 64.76 67.39 69.56 72.48 73.42 73.34 71.84 72.34 73.95 73.76 75.16 76.18 77.24 77.96 78.10 77.15 77.13 77.12 77.16 77.22 77.51 77.46 77.21 77.06 76.95 76.62 76.46 76.13 75.62 75.84 75.49 75.37 75.46 75.68 75.63 75.46
67.20 64.90 61.69 60.37 59.66 59.51 64.95 68.42 68.23 67.83 66.36 71.25 71.02 63.80 64.32 69.21 72.83 72.84 72.52 71.63 71.98 73.38 73.83 75.81 76.80 75.92 76.60 76.10 77.71 77.38 77.32 77.11 77.27 77.30 76.76 76.64 77.31 76.66 76.04 77.24 77.05 75.90 75.84 75.56 75.23 75.24 75.46 76.84 76.80
69.09 60.63 59.98 59.82 59.86 61.44 64.51 65.97 70.20 71.33 68.69 69.32 70.53 69.06 70.40 71.67 72.50 71.43 70.50 70.53 72.35 72.34 73.52 74.11 74.13 75.27 76.14 76.21 76.74 77.30 77.33 77.36 77.42 77.57 77.37 77.38 76.01 75.71 75.32 76.85 76.41 76.01 75.72 75.56 75.53 75.76 76.54 76.84 76.02
64.70 60.50 61.04 64.28 64.81 60.57 62.77 64.01 67.68 67.72 67.43 66.99 69.00 70.66 71.56 71.47 71.41 70.02 69.00 69.15 70.58 71.50 72.30 73.22 74.03 74.00 75.04 75.23 76.77 77.07 76.69 76.25 76.71 77.24 76.45 77.71 74.28 77.60 74.84 75.70 76.40 76.11 76.09 75.92 76.29 75.99 75.08 74.51 72.65
64.73 60.25 63.69 64.48 66.80 64.80 65.65 64.62 68.30 66.80 64.85 66.90 67.51 68.87 70.29 70.24 70.36 69.89 69.22 69.49 71.04 71.63 72.15 73.45 75.76 76.63 74.24 75.08 76.88 76.58 76.11 76.09 76.44 77.44 73.59 77.24 77.14 74.54 75.43 75.05 75.07 74.65 76.35 74.63 74.86 75.00 73.66 72.43 72.39
61.85 64.51 63.80 65.57 66.95 67.48 65.47 68.81 65.82 66.58 65.04 67.99 70.46 70.74 70.26 69.24 69.16 69.16 68.86 69.22 71.07 71.39 71.65 74.28 73.55 76.90 74.42 75.51 76.14 75.21 73.91 76.57 75.67 77.16 78.92 78.98 74.91 73.04 73.30 74.06 75.10 74.36 76.54 73.30 71.95 72.49 73.36 72.69 73.58
61.61 63.53 64.84 65.84 65.30 67.96 68.26 64.83 64.48 64.48 65.15 66.81 71.03 70.56 69.73 69.69 69.41 70.34 70.03 70.10 71.22 71.35 72.71 74.05 75.58 75.88 76.74 78.93 73.61 74.78 74.90 75.78 76.01 76.59 78.79 73.35 75.79 73.27 73.15 75.63 73.08 72.85 74.08 73.95 72.62 74.63 73.07 73.41 72.37
62.12 62.59 63.12 64.58 63.87 67.60 65.39 66.32 66.45 66.68 67.82 69.75 69.85 69.10 69.86 69.74 70.02 71.17 69.53 69.95 70.26 71.49 72.99 74.21 74.13 77.43 78.19 79.23 79.33 73.44 76.29 76.13 74.52 77.28 77.84 75.99 77.11 74.46 75.89 76.62 72.86 73.28 72.21 73.02 74.88 74.98 71.69 73.20 74.08
58.99 57.51 59.03 61.47 62.94 66.27 66.71 63.67 64.51 68.14 69.92 68.58 69.09 68.63 69.18 69.89 70.60 70.43 70.63 70.74 70.82 71.91 73.55 73.73 73.94 75.39 77.27 78.90 79.51 78.76 73.61 72.63 75.93 76.02 79.27 75.18 76.73 78.11 76.69 77.02 72.52 72.71 73.74 74.92 77.10 76.46 73.85 72.40 72.61
54.84 55.62 53.29 58.12 61.28 64.36 65.99 59.55 65.28 68.23 66.98 67.90 68.80 68.93 69.61 69.76 70.17 71.39 71.88 71.55 71.47 71.54 73.13 73.63 73.42 74.04 76.19 78.77 78.69 78.27 77.58 75.45 76.25 76.66 78.13 78.47 79.26 78.64 76.51 77.91 76.74 77.93 75.85 73.83 73.08 73.14 74.57 71.28 72.68
53.12 48.35 51.14 54.60 60.02 61.11 64.05 60.79 65.96 65.96 65.13 67.57 68.25 68.76 69.16 69.29 70.58 71.53 72.15 71.90 71.69 72.34 73.12 73.27 74.58 73.62 75.42 77.41 77.34 77.75 80.55 75.04 76.85 76.21 77.46 79.73 78.74 76.77 74.43 76.94 78.80 79.23 76.24 76.32 73.34 71.14 72.38 74.05 73.08
48.88 48.83 50.06 52.30 56.99 59.34 60.36 60.82 62.46 61.60 62.22 62.74 68.08 68.31 69.21 69.01 69.36 71.73 72.07 72.53 71.72 72.32 73.30 74.31 74.57 74.87 77.27 76.70 77.86 76.93 77.97 77.76 73.17 76.59 77.14 78.84 79.23 77.72 76.56 76.80 79.14 78.74 74.94 75.27 74.50 74.16 74.48 74.58 68.78
52.11 50.90 49.77 51.61 55.89 56.44 58.29 60.23 60.66 61.19 61.37 62.69 67.36 67.52 68.38 69.20 70.62 72.02 72.25 72.94 71.89 71.47 72.53 74.34 74.44 75.38 75.01 75.37 74.42 74.62 74.65 76.01 76.65 74.89 78.64 79.37 76.88 78.81 78.71 79.43 78.70 78.45 76.04 75.46 77.06 76.86 74.30 72.60 72.39
52.90 50.90 50.12 52.86 53.90 55.08 56.27 58.00 60.25 61.22 61.32 62.38 63.14 67.82 68.08 69.24 70.26 71.33 71.87 72.39 71.65 71.39 72.12 73.28 74.55 75.58 74.71 75.98 75.96 76.05 76.84 75.25 75.16 75.97 78.30 78.76 79.11 79.23 77.28 77.77 78.19 79.57 77.20 77.06 76.55 71.23 70.72 75.00 70.69
51.81 50.50 50.32 50.53 53.22 53.95 54.76 55.21 58.76 60.72 62.92 64.72 64.06 69.50 68.41 69.60 69.39 70.49 70.85 71.65 71.96 71.40 71.90 72.57 74.94 75.73 75.02 76.10 75.38 77.13 77.59 76.91 75.35 77.33 77.15 77.88 79.28 79.19 76.13 78.67 79.26 79.30 78.53 76.10 76.45 75.10 74.98 71.93 70.13
48.74 52.79 51.82 51.06 50.20 47.02 53.68 46.95 59.20 62.20 63.50 62.86 65.82 68.17 68.28 69.22 70.44 70.77 70.38 71.43 71.59 71.93 72.95 73.28 74.79 76.06 75.13 76.59 74.58 76.02 73.69 73.69 75.05 75.87 75.65 77.14 79.48 79.23 78.97 79.17 79.64 79.52 77.03 76.46 76.76 77.22 74.94 75.09 72.71
50.39 53.53 52.14 51.29 49.88 49.34 49.68 48.25 51.69 60.95 60.58 59.71 61.39 66.97 68.71 68.80 70.44 70.44 70.86 71.43 72.14 72.72 72.61 73.78 74.32 75.91 74.71 74.88 76.55 74.80 74.51 74.66 75.57 75.13 77.57 77.28 79.89 80.19 77.32 78.95 79.24 79.06 78.34 78.46 78.66 78.01 78.00 77.39 75.16
54.10 51.66 51.39 51.39 49.46 44.52 48.05 48.05 50.41 55.61 61.66 60.08 60.39 63.83 68.52 69.06 69.71 71.34 72.03 72.43 72.44 73.09 72.56 73.94 74.02 74.82 75.42 74.53 75.15 75.57 73.84 76.48 75.41 75.32 75.37 76.45 76.71 78.12 80.01 78.55 79.22 79.39 79.02 78.32 78.69 79.47 78.54 78.72 77.97
52.43 49.26 43.07 42.52 43.16 42.50 48.84 47.13 50.91 55.92 63.46 63.49 61.48 64.09 68.40 70.41 70.45 70.73 71.19 71.65 72.08 72.23 72.30 72.68 73.82 73.68 74.83 74.65 73.70 76.16 74.44 75.12 77.80 77.20 75.14 74.60 75.03 75.14 77.55 79.86 78.41 77.98 78.97 78.41 79.38 79.32 78.97 78.67 77.83
49.77 49.38 44.45 39.06 40.89 43.56 49.46 46.15 49.46 55.25 57.41 66.27 64.04 65.70 66.23 68.43 70.98 70.70 71.67 72.14 72.30 72.86 72.58 72.47 73.69 73.58 74.32 75.19 73.13 74.73 76.77 74.56 75.44 78.28 74.94 75.88 73.95 75.41 77.35 77.94 78.83 79.67 78.68 78.98 79.31 78.71 78.04 78.41 77.63
49.73 47.63 51.32 46.60 48.20 45.17 47.78 50.47 53.43 55.68 55.52 57.64 64.50 63.59 64.09 66.64 71.23 71.09 71.96 72.57 73.22 73.15 73.30 73.05 73.51 74.17 74.77 74.74 74.98 73.50 75.84 76.49 74.61 77.84 79.15 75.95 78.04 77.74 77.19 77.97 78.81 78.63 78.76 78.52 78.68 77.68 77.59 78.54 78.79
49.78 51.51 46.33 47.74 41.06 40.97 45.88 48.95 49.41 53.61 55.12 56.15 58.43 63.92 64.98 65.47 68.62 71.67 72.08 72.71 73.53 73.94 74.48 74.69 74.67 74.45 75.33 74.62 75.67 74.46 74.27 75.33 76.45 75.13 78.27 77.49 78.84 78.22 77.79 78.14 77.97 78.38 79.36 79.27 78.32 77.52 77.22 77.91 76.99
47.87 47.52 48.80 48.97 47.98 42.92 42.32 46.83 56.19 56.78 56.56 56.40 56.84 60.52 65.36 65.48 68.40 71.00 72.17 73.12 73.71 74.42 74.51 74.70 75.05 74.86 75.35 75.79 75.43 75.39 74.49 74.55 74.41 75.33 75.07 76.85 77.49 80.89 79.32 79.63 78.70 78.24 77.90 78.93 78.73 78.17 77.11 76.93 77.17
49.78 48.41 48.34 45.86 45.09 47.57 47.53 47.74 57.56 58.90 57.57 57.09 57.59 59.40 64.06 64.83 67.96 66.86 67.59 72.79 73.52 73.98 74.30 74.69 75.00 75.92 76.22 76.37 76.01 75.37 76.23 75.40 74.41 73.19 75.30 77.77 77.32 78.41 81.08 79.08 79.75 78.24 78.02 78.20 78.00 77.29 76.07 76.58 76.94
MSLP
1009.67 1009.69 1009.70 1010.16 1010.22 1008.79 1005.99 1005.56 1002.91 1002.36 1002.05 1002.16 1002.90 1004.22 1005.62 1006.41 1006.82 1009.22 1010.63 1011.17 1012.17 1013.22 1014.17 1014.75 1015.18 1015.46 1015.74 1015.97 1016.04 1016.27 1016.39 1016.71 1016.68 1016.84 1016.94 1017.05 1017.21 1017.24 1017.30 1017.41 1017.48 1017.46 1017.51 1017.56 1017.66 1017.75 1017.78 1017.86 1017.96
1008.71 1009.11 1009.71 1009.32 1009.25 1007.71 1006.34 1004.64 1002.99 1002.10 1002.06 1002.60 1003.16 1004.54 1005.23 1006.46 1007.55 1009.00 1010.16 1011.25 1012.07 1013.06 1013.88 1014.76 1015.35 1015.56 1015.83 1016.04 1016.23 1016.46 1016.64 1016.72 1016.88 1017.04 1017.14 1017.17 1017.43 1017.50 1017.58 1017.64 1017.70 1017.66 1017.74 1017.81 1017.84 1017.97 1017.97 1018.13 1018.21
1008.82 1008.69 1009.24 1008.43 1007.44 1007.94 1005.80 1003.81 1001.98 1001.50 1001.58 1002.57 1003.72 1004.72 1005.76 1007.34 1008.54 1009.09 1010.28 1011.24 1011.82 1012.77 1013.64 1015.00 1015.39 1015.61 1015.91 1016.13 1016.32 1016.58 1016.68 1016.86 1016.99 1017.25 1017.40 1017.50 1017.52 1017.66 1017.74 1017.81 1017.86 1017.86 1017.94 1018.03 1018.17 1018.22 1018.29 1018.38 1018.41
1008.62 1009.12 1008.64 1007.49 1007.07 1007.35 1005.24 1003.44 1002.27 1001.94 1002.48 1003.07 1004.20 1005.68 1007.22 1008.20 1008.51 1009.60 1010.32 1010.95 1011.57 1012.86 1014.07 1015.22 1015.46 1015.75 1015.99 1016.21 1016.49 1016.68 1016.84 1017.04 1017.20 1017.38 1017.44 1017.64 1017.69 1017.78 1017.87 1018.03 1018.09 1018.17 1018.26 1018.32 1018.41 1018.54 1018.58 1018.64 1018.64
1008.19 1008.37 1007.48 1006.35 1006.75 1005.98 1004.65 1002.28 1002.09 1001.97 1002.92 1003.65 1004.56 1006.51 1007.83 1008.63 1009.24 1009.84 1010.16 1010.40 1011.29 1012.92 1014.44 1015.23 1015.63 1015.85 1016.16 1016.43 1016.62 1016.83 1017.01 1017.17 1017.27 1017.40 1017.51 1017.58 1017.84 1017.94 1018.14 1018.24 1018.22 1018.30 1018.42 1018.48 1018.58 1018.63 1018.69 1018.77 1018.76
1007.56 1006.82 1006.16 1006.58 1006.08 1004.77 1002.46 1002.43 1002.19 1002.45 1003.19 1004.45 1005.38 1006.56 1008.11 1008.78 1009.44 1009.54 1009.70 1010.17 1011.32 1012.96 1014.21 1015.30 1015.87 1016.05 1016.34 1016.56 1016.76 1017.01 1017.16 1017.26 1017.34 1017.46 1017.63 1017.86 1018.02 1018.20 1018.25 1018.35 1018.40 1018.38 1018.50 1018.59 1018.74 1018.77 1018.86 1018.87 1018.81
1005.66 1005.66 1005.17 1005.74 1005.97 1004.33 1001.76 1001.72 1002.20 1002.61 1002.71 1003.60 1005.25 1006.28 1008.10 1008.95 1009.11 1009.30 1009.45 1009.96 1011.30 1012.68 1014.26 1015.29 1015.84 1016.13 1016.45 1016.75 1016.97 1017.14 1017.28 1017.43 1017.53 1017.67 1017.78 1018.00 1018.20 1018.44 1018.44 1018.53 1018.52 1018.52 1018.58 1018.76 1018.80 1018.83 1018.86 1018.90 1018.86
1004.09 1003.94 1004.18 1004.69 1004.92 1004.71 1003.87 1002.06 1002.51 1002.55 1002.78 1003.56 1004.62 1006.35 1007.57 1008.61 1008.61 1008.84 1009.24 1009.94 1011.18 1012.92 1014.22 1014.98 1015.69 1016.01 1016.36 1016.88 1017.00 1017.26 1017.36 1017.50 1017.64 1017.76 1017.91 1018.08 1018.28 1018.51 1018.56 1018.70 1018.60 1018.72 1018.89 1018.86 1018.99 1019.11 1019.27 1019.35 1019.22
1003.17 1003.39 1003.54 1004.16 1004.66 1005.22 1003.83 1002.49 1002.24 1001.92 1002.65 1003.68 1004.09 1005.58 1006.87 1007.98 1008.24 1008.93 1009.25 1009.98 1011.38 1012.44 1013.60 1014.34 1015.27 1015.84 1016.10 1016.79 1017.12 1017.34 1017.45 1017.52 1017.71 1017.86 1018.06 1018.14 1018.20 1018.44 1018.57 1018.76 1018.60 1018.82 1018.88 1018.99 1019.29 1019.66 1019.84 1019.74 1019.82
1002.69 1002.64 1003.84 1003.57 1004.38 1004.78 1003.43 1003.52 1002.90 1002.73 1002.91 1004.29 1004.22 1005.32 1006.64 1007.52 1008.06 1008.91 1009.17 1009.98 1011.13 1012.14 1012.92 1013.69 1014.24 1015.31 1015.68 1015.96 1016.94 1017.07 1017.22 1017.32 1017.39 1017.61 1018.05 1018.25 1018.32 1018.09 1018.45 1018.66 1018.91 1018.93 1018.88 1018.94 1019.14 1019.62 1020.29 1021.05 1020.68
1002.10 1001.98 1002.22 1002.36 1001.99 1003.91 1001.58 1004.87 1003.90 1002.24 1003.14 1004.24 1004.61 1005.46 1006.31 1007.18 1008.12 1008.79 1009.27 1010.00 1010.80 1011.68 1012.19 1013.13 1014.21 1014.84 1015.03 1015.91 1016.29 1016.31 1016.78 1017.08 1017.08 1017.60 1017.95 1017.90 1017.96 1018.67 1018.36 1018.58 1018.78 1018.72 1019.05 1018.91 1019.09 1019.84 1020.81 1021.46 1021.60
1001.31 1000.84 1000.72 1000.75 1001.43 1001.09 1001.52 1001.66 1003.43 1002.60 1005.11 1004.70 1004.39 1005.26 1006.26 1007.24 1008.10 1008.47 1009.15 1010.04 1010.90 1011.44 1011.97 1013.37 1014.21 1014.54 1015.18 1015.34 1015.35 1015.69 1016.26 1016.61 1016.64 1017.07 1017.29 1017.24 1018.32 1018.83 1018.53 1018.56 1018.61 1019.34 1018.69 1019.25 1019.16 1020.07 1020.67 1021.14 1020.60
1000.51 1000.36 1000.02 999.70 1000.52 1000.32 1000.66 1001.94 1004.28 1004.23 1004.16 1004.64 1004.75 1005.48 1006.30 1007.31 1008.34 1008.47 1009.00 1010.06 1011.14 1011.52 1012.13 1013.38 1014.14 1014.94 1014.92 1014.90 1015.24 1015.39 1015.72 1015.90 1016.39 1016.93 1017.23 1018.12 1018.07 1018.43 1018.35 1018.32 1019.70 1019.19 1019.48 1019.48 1019.42 1019.32 1020.10 1020.21 1020.11
1000.16 999.89 999.63 999.20 999.37 999.74 1000.58 1001.54 1002.80 1004.29 1003.89 1004.83 1005.36 1006.15 1006.63 1007.24 1008.00 1008.16 1008.76 1009.85 1011.09 1011.60 1012.13 1013.20 1014.03 1014.68 1014.89 1015.27 1015.11 1015.57 1015.83 1016.48 1016.74 1016.66 1016.99 1018.41 1017.92 1017.84 1018.17 1018.57 1019.54 1019.37 1018.59 1019.15 1019.28 1019.01 1019.08 1019.37 1019.34
1000.09 999.64 999.24 998.97 999.05 999.46 1000.56 1001.46 1002.65 1003.08 1003.12 1003.52 1005.80 1006.90 1007.38 1007.52 1007.83 1007.96 1008.63 1009.64 1010.80 1011.54 1012.17 1013.32 1014.11 1014.77 1015.23 1015.49 1015.34 1015.32 1015.88 1017.49 1017.22 1016.94 1017.21 1018.19 1018.13 1017.74 1017.88 1018.42 1019.48 1019.25 1019.12 1019.32 1018.90 1019.11 1019.65 1019.58 1019.38
1000.28 999.87 998.89 998.40 998.70 998.78 999.98 1001.13 1003.10 1004.50 1005.28 1004.16 1005.62 1006.50 1007.14 1007.52 1007.63 1008.02 1008.34 1009.37 1010.58 1011.40 1012.21 1013.23 1013.80 1014.84 1015.38 1015.54 1015.50 1015.42 1015.50 1016.45 1016.44 1016.76 1017.13 1017.40 1017.81 1018.24 1018.82 1018.06 1018.18 1018.38 1018.75 1018.68 1019.49 1019.56 1019.60 1019.98 1019.91
1000.02 999.14 998.50 998.00 997.47 998.47 999.14 1001.44 1003.83 1004.99 1006.23 1004.59 1005.56 1005.99 1006.39 1007.19 1007.34 1007.68 1008.01 1009.10 1010.25 1011.24 1012.14 1013.10 1013.71 1014.63 1015.32 1015.66 1015.72 1015.69 1015.35 1016.25 1016.50 1016.81 1016.99 1017.29 1017.88 1018.33 1019.03 1018.90 1018.20 1018.11 1018.60 1018.95 1019.79 1019.52 1019.96 1019.97 1019.99
999.25 998.60 998.01 996.99 997.00 997.54 998.96 1001.08 1004.44 1004.46 1006.04 1006.95 1004.64 1005.60 1005.72 1006.32 1006.88 1007.25 1007.68 1008.72 1009.97 1011.07 1012.06 1013.02 1013.63 1014.41 1015.22 1015.74 1015.92 1015.81 1015.78 1016.20 1016.62 1016.82 1017.12 1017.34 1017.64 1018.34 1018.92 1018.78 1018.33 1018.18 1018.94 1019.17 1019.56 1019.76 1019.87 1019.90 1019.63
999.12 997.94 996.99 996.46 996.17 996.69 997.95 1000.53 1003.52 1004.74 1005.24 1005.61 1004.77 1004.82 1005.13 1005.38 1006.43 1006.81 1007.42 1008.34 1009.58 1010.77 1011.95 1012.89 1013.60 1014.39 1015.11 1015.72 1015.93 1015.93 1016.05 1016.22 1016.55 1016.83 1016.95 1017.15 1017.59 1017.63 1018.38 1018.64 1018.45 1018.34 1018.87 1019.06 1019.33 1019.34 1019.30 1019.52 1019.62
999.45 998.44 997.02 995.78 995.74 996.06 997.22 999.32 1002.76 1003.63 1004.15 1004.85 1005.22 1003.84 1004.36 1004.58 1005.46 1006.27 1007.12 1007.86 1009.05 1010.36 1011.60 1012.80 1013.48 1014.37 1014.89 1015.54 1015.80 1015.80 1015.90 1016.08 1016.08 1016.55 1016.70 1016.90 1017.19 1017.53 1018.19 1018.43 1018.46 1018.14 1018.70 1019.06 1019.23 1019.27 1019.73 1019.59 1019.26
999.20 998.67 997.59 996.51 995.76 995.72 996.40 998.50 1002.26 1003.59 1003.71 1005.30 1005.06 1002.64 1003.49 1003.68 1004.34 1005.46 1006.52 1007.34 1008.46 1009.79 1011.14 1012.30 1013.20 1014.06 1014.70 1015.30 1015.77 1015.81 1015.87 1015.96 1016.14 1016.28 1016.55 1016.72 1017.04 1017.29 1018.08 1018.22 1018.22 1018.24 1018.55 1019.05 1019.36 1019.43 1019.65 1019.77 1019.58
998.90 998.57 998.26 997.44 996.87 996.05 996.36 997.44 999.07 1001.04 1001.51 1003.62 1002.21 1001.49 1002.39 1002.92 1003.82 1004.70 1005.88 1006.84 1007.78 1009.05 1010.53 1011.79 1012.82 1013.65 1014.40 1015.01 1015.39 1015.52 1015.55 1015.76 1015.80 1016.10 1016.28 1016.59 1016.78 1017.05 1017.42 1017.83 1018.14 1018.17 1018.51 1018.85 1018.95 1019.12 1019.29 1019.49 1019.44
998.99 998.81 998.29 998.27 997.82 997.23 996.38 996.66 996.92 997.89 999.99 1001.36 1002.88 1001.87 1000.99 1001.92 1002.77 1003.61 1004.67 1005.88 1006.93 1008.38 1009.70 1011.12 1012.35 1013.26 1014.00 1014.62 1014.93 1015.27 1015.44 1015.27 1015.28 1015.64 1015.97 1016.40 1016.74 1016.82 1017.18 1017.51 1017.94 1018.24 1018.43 1018.62 1018.77 1018.79 1019.03 1019.33 1019.31
999.39 999.30 999.05 998.73 998.36 997.33 996.74 996.11 995.51 996.22 998.44 1000.76 1001.63 1002.10 999.89 1000.60 1001.84 1002.66 1003.90 1005.35 1006.44 1007.65 1009.06 1010.35 1011.72 1012.68 1013.52 1014.26 1014.75 1014.94 1015.11 1015.08 1015.16 1015.35 1015.74 1016.13 1016.64 1016.91 1016.90 1017.28 1017.74 1018.09 1018.42 1018.66 1018.74 1018.80 1019.09 1019.23 1019.38
999.38 999.42 999.32 999.12 998.06 996.60 996.78 995.86 995.00 994.76 995.80 997.80 998.64 999.04 999.10 999.02 1000.38 1001.64 1002.75 1004.08 1005.43 1006.52 1007.77 1009.09 1010.65 1011.85 1012.81 1013.67 1014.14 1014.54 1014.80 1014.96 1015.08 1015.10 1015.50 1015.87 1016.17 1016.55 1016.81 1017.04 1017.80 1018.15 1018.25 1018.34 1018.50 1018.82 1019.06 1019.19 1019.26
999.04 999.46 999.14 998.44 997.41 996.62 996.35 994.60 994.07 994.79 994.28 995.60 996.62 998.63 998.82 998.81 998.48 999.86 1001.37 1002.77 1004.13 1005.35 1006.64 1007.94 1009.38 1010.74 1011.86 1012.73 1013.52 1014.10 1014.36 1014.59 1014.86 1014.89 1014.90 1015.28 1015.60 1015.68 1016.17 1016.59 1017.08 1017.51 1017.95 1018.08 1018.40 1018.83 1019.07 1019.18 1019.25
999.31 998.78 999.36 998.88 997.69 996.48 995.14 994.46 994.00 993.70 993.54 993.97 995.54 996.63 998.34 999.75 997.68 998.93 999.52 1001.37 1002.95 1004.34 1005.61 1006.82 1008.31 1009.74 1010.79 1011.65 1012.74 1013.45 1013.79 1014.17 1014.38 1014.57 1014.74 1014.98 1015.06 1015.16 1015.63 1016.09 1016.74 1017.15 1017.60 1017.94 1018.27 1018.78 1018.94 1019.06 1019.20
999.54 999.48 998.94 998.89 997.92 996.24 994.93 993.60 992.23 992.56 992.64 992.98 993.52 995.03 996.48 997.15 997.85 997.96 999.19 1000.05 1001.60 1003.08 1004.48 1006.11 1007.46 1008.76 1009.91 1011.12 1011.93 1012.68 1013.18 1013.59 1014.03 1014.39 1014.58 1014.80 1014.93 1014.97 1015.80 1015.93 1016.35 1016.76 1017.12 1017.44 1018.08 1018.47 1018.74 1019.04 1019.13
1000.02 999.72 999.02 998.78 998.34 997.08 995.44 993.29 991.62 991.00 991.36 991.91 992.71 993.56 995.42 996.70 998.98 996.87 997.79 999.57 1000.93 1002.15 1003.53 1004.90 1006.34 1007.80 1008.94 1009.91 1010.90 1011.79 1012.57 1013.09 1013.59 1013.85 1014.36 1014.47 1014.81 1014.96 1015.26 1015.70 1016.01 1016.53 1016.96 1017.28 1017.68 1017.98 1018.23 1018.63 1018.71
1000.41 999.95 999.64 998.89 998.74 997.69 995.99 993.55 991.66 991.12 990.33 991.34 992.15 992.91 993.74 996.12 997.64 997.07 998.86 998.52 999.94 1001.28 1002.62 1003.64 1005.01 1006.21 1007.53 1008.68 1009.83 1010.71 1011.55 1012.43 1012.89 1013.28 1013.54 1014.06 1014.37 1014.72 1014.96 1015.38 1015.81 1016.20 1016.60 1016.98 1017.30 1017.63 1017.74 1018.00 1018.23
Wind_Speed
12 11 7 1 3 5 3 8 3 16 14 13 16 15 14 8 2 10 20 19 22 18 15 13 13 13 12 12 12 11 10 10 10 10 9 9 10 10 10 11 10 12 10 10 11 11 12 10 12
13 10 1 3 1 4 7 8 10 8 22 19 18 16 18 19 20 22 20 23 21 19 17 15 12 13 13 12 11 11 11 10 9 9 9 9 10 11 10 10 11 11 11 11 11 11 12 12 11
10 8 3 4 3 5 4 4 13 18 17 18 20 15 9 19 23 18 24 24 23 18 17 15 14 13 13 12 12 11 11 10 9 10 9 9 11 10 11 9 10 10 11 11 11 12 12 11 10
7 3 6 6 6 1 9 10 17 15 17 20 17 15 22 20 17 24 26 25 22 21 18 15 14 14 14 12 13 12 11 11 10 10 9 10 11 11 11 9 10 10 10 11 10 11 10 10 9
4 4 6 4 5 9 24 10 18 13 17 18 18 24 20 15 27 24 23 22 22 22 17 14 14 14 14 13 13 12 11 11 10 11 10 10 11 11 10 9 9 11 11 11 10 9 9 8 6
4 4 8 7 11 11 10 16 15 15 15 24 21 24 11 20 25 22 21 21 25 20 18 15 14 14 14 14 13 12 12 11 10 10 10 11 10 10 9 9 8 10 10 11 10 12 10 7 6
9 7 13 5 7 16 9 12 14 7 14 20 25 19 13 20 21 21 19 20 22 22 16 13 13 13 15 13 12 13 12 11 10 11 11 10 10 10 9 8 8 8 9 9 9 9 9 7 6
13 11 12 6 6 4 12 14 18 12 11 20 18 10 21 21 21 19 17 22 22 20 17 14 12 11 11 11 13 12 11 11 11 11 12 12 11 11 9 10 7 9 9 8 7 6 6 6 6
20 8 8 5 4 5 20 7 18 12 16 10 7 21 25 28 24 17 15 19 19 16 17 17 14 12 11 11 10 10 12 11 10 10 12 10 6 8 9 9 8 9 9 8 6 6 5 4 3
16 9 8 5 11 8 4 14 15 14 17 8 11 24 28 28 22 21 18 20 20 18 17 16 15 13 12 12 11 10 9 8 8 7 7 5 3 4 9 6 7 8 9 9 8 9 7 13 11
19 14 16 12 11 21 17 22 12 12 16 14 23 25 28 24 22 21 20 17 18 18 14 18 16 11 13 10 8 7 6 5 3 7 4 7 5 5 3 4 4 3 8 5 8 7 5 13 10
20 18 16 11 6 2 7 11 13 17 5 9 17 24 26 25 23 22 19 18 15 15 14 16 6 7 9 7 8 6 4 8 6 4 5 2 6 6 3 2 5 4 3 12 7 5 8 5 12
19 16 20 8 6 11 5 8 13 9 14 13 18 24 27 23 24 20 20 20 15 11 18 20 14 10 5 5 1 6 7 5 8 5 2 6 2 6 3 3 9 4 3 7 5 3 9 6 2
15 18 20 12 12 6 10 10 17 11 24 19 23 21 21 24 26 19 18 20 17 13 15 15 11 6 4 1 3 2 7 5 2 4 5 7 3 7 6 3 6 4 0 2 3 3 3 3 3
16 21 14 18 17 12 8 4 7 15 23 26 24 21 22 20 24 17 18 20 18 12 15 15 14 9 6 4 1 1 5 3 4 4 3 14 5 6 3 5 5 8 4 8 5 5 6 3 0
14 19 18 17 19 17 18 13 13 14 3 21 23 23 24 22 25 19 18 20 18 15 13 15 15 13 9 5 3 3 4 9 4 4 4 5 4 8 6 4 5 3 4 1 5 4 2 2 2
16 16 22 21 20 19 16 5 8 7 10 17 20 23 23 22 21 17 19 19 19 13 14 14 11 14 11 9 5 5 2 4 4 3 5 4 5 8 2 5 1 1 3 4 4 2 1 1 2
16 18 19 19 18 20 20 11 13 13 8 20 23 19 21 24 21 20 20 19 19 15 15 12 9 14 9 8 5 4 3 4 3 4 4 7 4 10 6 3 1 3 4 3 5 3 4 4 4
21 19 18 17 19 20 20 15 15 15 12 8 14 20 22 24 20 19 18 19 20 17 16 11 10 14 9 7 6 5 5 3 6 3 8 5 3 6 5 2 3 3 5 4 5 1 3 3 1
23 21 21 15 19 20 17 15 17 10 5 17 26 22 22 23 26 21 18 18 19 17 17 13 11 14 10 7 5 5 4 5 3 7 8 7 4 6 6 4 3 2 3 3 5 3 3 1 3
19 21 19 17 12 20 18 18 20 14 15 14 31 23 23 23 25 23 21 19 19 19 19 16 12 15 11 8 6 4 4 4 7 5 5 4 6 5 6 5 1 1 2 3 4 3 5 1 2
20 18 20 19 16 14 14 14 22 25 26 20 13 24 24 23 23 23 23 20 20 20 19 18 14 14 12 10 8 6 5 5 4 4 4 7 6 6 7 6 4 2 1 5 4 5 2 4 0
20 19 16 18 18 19 22 16 16 23 21 10 17 21 25 25 25 26 25 23 21 20 19 18 17 14 14 12 8 8 8 6 4 6 9 8 5 5 7 7 6 4 3 4 2 2 1 2 1
16 20 18 16 16 17 20 19 15 16 22 21 15 24 22 26 24 25 24 22 19 19 20 19 19 17 15 15 12 11 11 7 5 6 8 6 7 4 5 9 6 5 3 4 4 1 3 3 3
19 15 12 16 16 16 21 20 14 16 24 27 26 26 21 25 25 22 25 24 23 24 23 21 22 20 18 18 15 12 13 11 7 7 8 8 7 8 7 5 8 6 6 5 4 4 3 2 3
21 20 15 20 15 18 21 21 18 22 23 29 28 19 11 25 26 27 25 24 25 24 24 23 24 23 21 19 18 13 12 9 8 6 6 6 8 8 12 9 8 6 6 5 5 3 3 4 3
22 20 21 25 22 19 16 18 26 20 23 20 25 24 11 31 26 27 27 25 24 23 24 23 23 22 22 21 17 16 13 12 10 7 5 6 5 2 14 12 8 8 7 7 8 5 5 3 3
18 19 21 16 22 23 19 23 14 21 19 20 19 25 27 19 28 27 23 24 23 24 22 22 21 23 22 22 17 16 16 16 9 10 7 7 5 6 10 12 11 8 7 6 8 6 6 6 5
16 17 22 15 16 18 17 16 17 21 23 19 21 18 25 24 18 22 22 21 21 22 22 22 21 23 22 21 19 18 17 16 15 11 11 10 8 5 6 6 6 8 8 7 7 6 5 10 7
15 18 22 15 18 17 19 17 12 17 23 18 15 17 16 27 25 7 7 22 21 21 22 23 23 21 22 21 20 20 17 18 17 15 15 12 12 9 5 7 6 7 7 7 8 9 7 9 8
Wind_Direction
192 197 201 342 247 225 194 221 254 125 126 114 99 96 93 83 195 119 144 134 135 138 133 150 138 134 127 128 130 130 128 122 124 119 108 113 103 94 92 85 93 93 90 89 109 106 97 96 86
197 193 315 263 261 43 294 123 122 199 108 99 113 113 87 92 100 123 125 130 137 131 145 137 140 136 133 134 134 132 130 131 129 128 128 117 112 105 99 102 88 93 97 95 97 100 104 94 98
256 219 257 221 210 129 254 107 130 101 116 105 88 68 42 106 120 122 131 132 137 149 123 129 145 133 133 139 137 129 128 124 118 116 121 116 117 113 97 105 98 93 91 97 100 102 98 105 101
213 166 252 249 75 122 250 206 111 132 86 104 106 78 104 117 128 130 132 153 134 116 123 133 138 137 132 132 116 121 122 125 127 122 120 127 114 106 108 102 106 99 92 89 92 97 102 98 99
240 240 258 226 189 241 227 122 148 123 108 118 104 109 118 111 118 135 153 147 137 117 127 136 133 132 125 122 121 120 122 120 128 133 131 132 127 113 109 109 105 103 101 101 100 108 116 111 110
210 245 269 40 334 281 133 150 122 119 123 104 108 122 122 136 135 150 163 142 117 128 133 137 127 130 130 126 122 119 122 126 128 131 131 128 123 119 121 116 112 109 109 109 103 105 112 128 144
246 262 286 171 212 256 124 111 117 135 143 118 136 117 137 143 158 162 161 132 125 128 129 138 134 133 132 124 125 128 132 131 137 135 133 132 134 133 129 123 120 119 118 117 121 127 131 134 165
233 278 292 96 253 306 319 115 131 170 105 114 125 138 159 154 175 151 156 129 134 124 134 131 145 136 136 138 123 132 131 141 147 148 150 153 149 141 142 132 128 128 125 132 131 131 142 165 202
242 277 295 311 63 319 267 188 136 152 120 135 124 144 151 161 160 151 156 136 125 140 147 145 146 162 141 131 127 132 143 153 156 166 173 168 148 160 146 98 132 133 138 145 138 106 105 169 238
247 261 329 8 120 231 268 272 20 148 126 140 132 129 150 166 158 161 155 141 145 143 159 145 156 145 164 133 158 159 162 167 184 176 173 197 167 140 111 128 132 140 151 150 154 131 76 34 331
234 245 226 277 259 180 198 243 149 174 146 163 131 145 156 155 158 174 157 151 139 156 167 151 134 178 167 143 181 171 171 164 168 154 221 222 138 26 12 141 173 180 161 172 180 144 119 106 264
241 257 235 261 314 329 360 143 323 99 139 252 147 157 159 151 162 179 156 151 148 168 141 112 122 159 131 160 192 131 173 174 154 142 206 124 110 171 262 260 106 357 266 48 21 274 112 192 203
251 246 280 180 221 256 215 105 112 155 171 204 146 159 162 158 167 185 156 148 153 177 135 143 158 112 187 187 308 139 189 168 115 147 174 33 96 158 204 243 104 217 117 191 181 221 152 224 191
240 236 258 260 249 194 269 166 164 191 161 179 139 157 168 161 178 184 152 147 156 181 135 126 138 130 158 237 69 262 80 33 337 148 130 132 358 139 193 130 68 291 11 175 238 182 5 25 80
274 266 267 251 265 194 206 247 351 116 161 138 151 162 172 178 186 172 152 147 156 185 139 140 140 168 148 224 145 196 116 119 234 104 123 133 247 97 269 141 128 172 212 206 195 151 105 252 250
264 250 257 246 229 247 206 214 70 92 277 143 159 165 175 178 182 180 168 153 155 184 147 150 161 168 154 165 199 272 149 173 124 157 150 140 111 45 13 313 119 144 123 168 52 87 124 103 325
228 242 236 250 219 231 207 152 104 62 10 157 165 170 173 174 182 189 170 155 154 176 152 156 166 161 159 137 198 244 155 114 121 104 139 118 113 113 183 293 16 12 128 88 134 308 66 95 300
233 226 244 235 243 196 232 159 131 127 252 281 159 178 175 172 186 183 172 161 158 165 156 165 181 151 165 151 189 233 144 123 140 138 127 155 168 127 162 246 197 285 93 121 141 186 197 245 180
266 274 233 238 230 234 205 160 148 171 213 223 232 176 183 175 181 175 181 166 158 164 159 174 179 152 158 159 179 219 153 224 157 159 161 184 159 138 144 222 192 266 116 154 204 248 194 129 124
249 267 275 260 246 219 208 186 159 138 347 256 258 172 191 182 171 177 184 174 164 165 161 173 171 154 161 164 207 202 169 222 189 154 170 157 191 129 151 185 266 213 84 103 67 81 357 8 114
232 250 260 271 276 255 224 201 155 189 182 247 256 172 187 184 177 171 182 181 170 167 164 168 175 157 166 187 201 222 197 219 167 162 147 169 177 173 115 189 119 168 101 157 148 189 213 236 268
244 243 251 269 270 262 212 253 188 185 183 202 235 172 181 189 183 178 179 184 182 170 165 166 176 165 175 189 187 196 206 197 192 162 182 164 188 179 168 145 149 275 9 173 204 222 195 217 151
253 255 256 250 266 268 262 222 244 187 183 151 248 235 182 182 186 184 181 188 182 169 170 169 175 175 177 194 197 187 218 214 193 173 171 155 181 191 182 153 156 181 253 143 322 317 99 320 237
250 251 265 263 240 249 249 255 230 215 178 174 165 254 193 179 188 182 183 179 186 178 173 171 176 182 181 191 207 190 207 227 201 206 150 155 166 193 205 168 151 184 211 160 230 217 302 319 343
229 242 231 238 239 240 234 244 242 255 174 177 189 215 210 177 179 189 179 180 184 182 179 177 176 184 185 187 199 207 200 218 244 199 170 173 180 180 188 176 159 185 205 164 193 234 285 229 301
232 222 232 230 234 238 231 238 228 248 264 190 183 199 200 250 178 180 180 182 183 186 182 182 177 181 183 187 199 199 198 213 216 218 201 180 195 191 176 179 172 182 184 187 163 198 219 223 217
248 231 235 257 257 248 250 217 242 239 241 246 171 164 187 259 177 180 175 180 180 185 185 185 179 183 184 192 190 197 197 209 206 214 210 205 240 230 160 170 172 181 185 201 161 219 197 193 204
232 256 227 230 250 259 255 249 233 214 229 235 239 186 172 189 258 174 180 177 179 184 184 185 180 185 187 189 191 195 200 196 204 215 209 215 230 233 169 173 175 179 189 199 167 211 189 190 211
220 246 258 273 236 255 259 260 260 206 203 208 227 240 178 190 233 179 170 180 180 181 184 185 186 181 186 187 194 196 196 202 204 204 213 200 222 253 162 166 168 175 196 195 195 222 220 188 202
247 259 243 246 239 266 252 254 24 341 186 194 216 229 215 183 205 73 347 175 179 180 184 187 187 186 187 190 191 197 197 198 199 211 197 201 205 206 208 179 183 186 199 201 200 208 236 193 205